EW3454 Weather Reports


time (UTC)temp
F
wind
direction
speed
knots
gust
knots
rain 1hr
in
rain 24hr
in
rain mn
in
humidity
%
barometer
mb
20260901054504 75 11 0.0 0.9 0.00 0.12 0.00 1 1018.6
20260901053604 75 11 0.0 0.9 0.00 0.12 0.00 1 1018.7
20260901052704 75 0 0.0 0.0 0.00 0.12 0.00 1 1018.8
20260901051804 74 0 0.0 0.0 0.00 0.12 0.00 1 1018.8
20260901050905 74 0 0.0 0.0 0.00 0.12 0.00 1 1018.7
20260901050214 74 0 0.0 0.0 0.00 0.12 0.00 1 1018.7
20260901045405 74 0 0.0 0.0 0.00 0.12 0.00 1 1018.6
20260901044506 74 0 0.0 0.0 0.00 0.12 0.00 1 1018.7
20260901043604 75 0 0.0 0.0 0.00 0.12 0.00 1 1018.7
20260901042705 75 0 0.0 0.0 0.00 0.12 0.00 1 1018.8
20260901041804 74 0 0.0 0.0 0.00 0.12 0.00 1 1018.7
20260901040904 75 0 0.0 0.0 0.00 0.12 0.00 1 1018.6
20260901040214 75 0 0.0 0.0 0.00 0.12 0.00 1 1018.7
20260901035405 75 0 0.0 0.0 0.00 0.12 0.12 1 1018.8
20260901034504 75 0 0.0 0.0 0.00 0.12 0.12 1 1018.7
20260901033604 75 0 0.0 0.0 0.00 0.12 0.12 1 1018.8
20260901032918 75 0 0.0 0.0 0.00 0.12 0.12 1 1018.7
20260901031805 75 0 0.0 0.0 0.00 0.12 0.12 1 1018.7
20260901030904 75 0 0.0 0.0 0.00 0.12 0.12 1 1018.7
20260901030005 75 0 0.0 0.0 0.00 0.12 0.12 1 1018.7
20260901025405 75 11 0.0 0.9 0.00 0.12 0.12 1 1018.6
20260901024504 76 11 0.0 0.9 0.00 0.12 0.12 1 1018.7
20260901023604 76 11 0.0 0.9 0.00 0.12 0.12 1 1018.8
20260901022704 76 0 0.0 0.0 0.00 0.12 0.12 1 1018.8
20260901021805 76 11 0.0 0.9 0.00 0.12 0.12 1 1018.9
20260901020904 76 11 0.0 0.9 0.00 0.12 0.12 1 1018.9
20260901020216 76 11 0.0 0.9 0.00 0.12 0.12 1 1018.9
20260901015404 76 11 0.0 0.9 0.00 0.12 0.12 1 1019.0
20260901014504 76 9 0.9 2.6 0.00 0.12 0.12 1 1018.9
20260901013604 76 3 0.0 0.9 0.00 0.12 0.12 1 1018.7
20260901012704 76 0 0.0 0.0 0.00 0.12 0.12 1 1018.5
20260901011805 76 0 0.0 0.0 0.00 0.12 0.12 1 1018.4
20260901010905 76 0 0.0 0.0 0.00 0.12 0.12 1 1018.3
20260901010005 76 0 0.0 0.0 0.00 0.12 0.12 1 1018.3
20260901005404 76 0 0.0 0.0 0.00 0.12 0.12 1 1018.3
20260901004504 76 0 0.0 0.0 0.00 0.12 0.12 1 1018.3
20260901003818 76 0 0.0 0.0 0.00 0.12 0.12 1 1018.2
20260901002704 76 0 0.0 0.0 0.00 0.12 0.12 1 1018.2
20260901001805 76 0 0.0 0.0 0.00 0.12 0.12 1 1018.2
20260901000905 77 0 0.0 0.0 0.00 0.12 0.12 1 1018.0
20260901000218 77 0 0.0 0.0 0.00 0.12 0.12 1 1018.1
20260831235619 77 0 0.0 0.0 0.00 0.12 0.12 1 1018.0
20260831234505 77 0 0.0 0.0 0.00 0.12 0.12 1 1017.9
20260831233605 78 356 0.0 0.9 0.00 0.12 0.12 1 1017.9
20260831232704 78 0 0.0 0.0 0.00 0.12 0.12 1 1018.1
20260831231804 78 0 0.0 0.0 0.00 0.12 0.12 1 1018.0
20260831230905 79 0 0.0 0.0 0.00 0.12 0.12 1 1017.9
20260831230005 79 314 0.0 0.9 0.00 0.12 0.12 1 1018.0
20260831225404 80 0 0.0 0.0 0.00 0.12 0.12 1 1017.9
20260831224504 80 0 0.0 0.0 0.00 0.12 0.12 1 1018.0
20260831223604 81 0 0.0 0.0 0.00 0.12 0.12 1 1018.0
20260831222704 81 123 0.0 1.7 0.00 0.12 0.12 1 1017.8
20260831221805 81 154 0.0 2.6 0.00 0.12 0.12 1 1017.9
20260831221116 81 107 0.0 4.3 0.00 0.12 0.12 1 1018.0
20260831220005 81 75 0.9 4.3 0.00 0.12 0.12 1 1017.9
20260831215615 81 55 0.9 4.3 0.00 0.12 0.12 1 1018.0
20260831214504 81 6 0.0 1.7 0.06 0.12 0.12 1 1018.0
20260831213815 80 351 0.0 0.9 0.08 0.12 0.12 1 1017.9
20260831212704 80 82 0.9 2.6 0.09 0.12 0.12 1 1017.7
20260831211805 79 132 0.0 1.7 0.10 0.12 0.12 1 1017.7
20260831210904 78 158 0.0 0.9 0.10 0.12 0.12 1 1017.8
20260831210005 77 228 0.9 2.6 0.11 0.12 0.12 1 1018.2
20260831205616 77 199 0.9 2.6 0.11 0.12 0.12 1 1018.3
20260831204504 78 251 0.0 2.6 0.05 0.06 0.06 1 1018.4
20260831203815 79 296 0.0 2.6 0.03 0.04 0.04 1 1018.5
20260831202917 79 281 0.0 3.5 0.02 0.03 0.03 1 1018.9
20260831201804 81 269 0.9 2.6 0.01 0.02 0.02 1 1019.0
20260831201117 82 271 1.7 7.0 0.01 0.02 0.02 1 1018.9
20260831200214 84 319 2.6 7.0 0.00 0.01 0.01 18 1018.4
20260831195616 85 323 1.7 6.1 0.00 0.01 0.01 36 1018.2
20260831194504 88 287 1.7 7.8 0.00 0.01 0.01 50 1017.9
20260831193604 90 107 0.9 3.5 0.00 0.01 0.01 53 1017.4
20260831192705 91 125 0.9 3.5 0.00 0.01 0.01 53 1017.6
20260831191804 92 229 0.0 1.7 0.00 0.01 0.01 53 1017.7
20260831190905 92 274 0.9 3.5 0.00 0.01 0.01 53 1017.8
20260831190005 92 250 0.9 2.6 0.00 0.01 0.01 54 1017.7
20260831185404 93 229 0.9 2.6 0.00 0.01 0.01 53 1017.8
20260831184504 93 301 0.9 3.5 0.00 0.01 0.01 51 1017.9
20260831183604 94 260 0.9 4.3 0.00 0.01 0.01 50 1018.0
20260831182704 94 125 0.9 1.7 0.00 0.01 0.01 53 1018.0
20260831181804 93 244 0.9 4.3 0.00 0.01 0.01 53 1018.1
20260831180904 93 271 1.7 4.3 0.00 0.01 0.01 53 1018.3
20260831180004 92 239 0.9 4.3 0.00 0.01 0.01 53 1018.3
20260831175617 92 128 1.7 5.2 0.00 0.01 0.01 52 1018.5
20260831174715 92 86 1.7 5.2 0.00 0.01 0.01 53 1018.4
20260831173605 91 103 2.6 6.1 0.00 0.01 0.01 48 1018.4
20260831172705 90 88 1.7 5.2 0.00 0.01 0.01 45 1018.6
20260831171804 90 116 2.6 5.2 0.00 0.01 0.01 48 1018.6
20260831170904 90 89 2.6 6.1 0.00 0.01 0.01 42 1018.6
20260831170005 89 116 2.6 6.1 0.00 0.01 0.01 39 1018.7
20260831165404 89 101 2.6 5.2 0.00 0.01 0.01 41 1018.8
20260831164505 89 106 2.6 7.0 0.00 0.01 0.01 40 1018.8
20260831163605 89 102 2.6 4.3 0.00 0.01 0.01 35 1019.0
20260831162704 89 57 2.6 6.1 0.00 0.01 0.01 35 1019.1
20260831161805 90 196 0.9 3.5 0.00 0.01 0.01 48 1019.3
20260831160904 89 275 0.9 3.5 0.00 0.01 0.01 44 1019.4
20260831160005 88 131 0.9 4.3 0.00 0.01 0.01 46 1019.4
20260831155404 88 17 0.9 2.6 0.00 0.01 0.01 38 1019.4
20260831154716 88 331 0.9 6.1 0.00 0.01 0.01 37 1019.5
20260831153605 87 268 0.9 3.5 0.00 0.01 0.01 32 1019.6
20260831152705 87 259 0.9 4.3 0.00 0.01 0.01 40 1019.5
20260831151804 87 7 0.9 4.3 0.00 0.01 0.01 25 1019.5
20260831150905 86 322 0.9 4.3 0.00 0.01 0.01 24 1019.5
20260831150005 86 250 0.9 2.6 0.00 0.01 0.01 7 1019.5
20260831145405 86 268 0.9 4.3 0.00 0.01 0.01 1 1019.6
20260831144504 85 266 0.9 2.6 0.00 0.01 0.01 1 1019.6
20260831143605 84 250 0.9 3.5 0.00 0.01 0.01 1 1019.6
20260831142705 84 276 0.9 4.3 0.00 0.01 0.01 1 1019.7
20260831142014 84 257 0.9 4.3 0.00 0.01 0.01 1 1019.6
20260831141116 83 255 0.9 7.0 0.00 0.01 0.01 1 1019.6
20260831140005 83 262 1.7 4.3 0.00 0.01 0.01 1 1019.6
20260831135405 83 261 1.7 5.2 0.00 0.01 0.01 1 1019.5
20260831134504 83 271 0.9 4.3 0.00 0.01 0.01 1 1019.4
20260831133604 82 291 0.9 4.3 0.00 0.01 0.01 1 1019.4
20260831132704 82 326 0.9 2.6 0.00 0.01 0.01 1 1019.4
20260831131804 81 252 0.0 3.5 0.00 0.01 0.01 1 1019.3
20260831130905 80 243 0.0 1.7 0.00 0.01 0.01 1 1019.3
20260831130005 79 247 0.0 3.5 0.00 0.01 0.01 1 1019.3
20260831125615 78 258 0.9 3.5 0.00 0.01 0.01 1 1019.2
20260831124505 77 269 0.0 2.6 0.00 0.01 0.01 1 1019.2
20260831123604 76 231 0.0 1.7 0.00 0.01 0.01 1 1019.2
20260831122705 75 237 0.0 2.6 0.00 0.01 0.01 1 1019.3
20260831121804 75 186 0.0 2.6 0.00 0.01 0.01 1 1019.3
20260831120904 74 188 0.9 1.7 0.00 0.01 0.01 1 1019.4
20260831120005 74 189 0.0 1.7 0.00 0.01 0.01 1 1019.5
20260831115404 74 189 0.0 1.7 0.01 0.01 0.01 1 1019.6
20260831114504 73 195 0.0 1.7 0.01 0.01 0.01 1 1019.6
20260831113605 73 0 0.0 0.0 0.01 0.01 0.01 1 1019.5
20260831112704 72 0 0.0 0.0 0.01 0.01 0.01 1 1019.5
20260831111805 72 194 0.0 0.9 0.01 0.01 0.01 1 1019.5
20260831110904 72 194 0.0 0.9 0.01 0.01 0.01 1 1019.5
20260831110005 71 194 0.0 0.9 0.01 0.01 0.01 1 1019.4
20260831105404 71 0 0.0 0.0 0.00 0.00 0.00 1 1019.3
20260831104505 71 0 0.0 0.0 0.00 0.00 0.00 1 1019.3
20260831103604 71 0 0.0 0.0 0.00 0.00 0.00 1 1019.2
20260831102704 71 285 0.0 0.9 0.00 0.00 0.00 1 1019.1
20260831101804 71 0 0.0 0.0 0.00 0.00 0.00 1 1019.1
20260831100904 72 0 0.0 0.0 0.00 0.00 0.00 1 1019.0
20260831100005 72 285 0.0 0.9 0.00 0.00 0.00 1 1019.1
20260831095405 72 285 0.0 0.9 0.00 0.00 0.00 1 1019.1
20260831094504 72 285 0.0 0.9 0.00 0.00 0.00 1 1019.1
20260831093605 72 285 0.0 0.9 0.00 0.00 0.00 1 1019.0
20260831092704 72 0 0.0 0.0 0.00 0.00 0.00 1 1018.9
20260831091805 72 285 0.0 0.9 0.00 0.00 0.00 1 1018.9
20260831090905 72 285 0.0 0.9 0.00 0.00 0.00 1 1018.8
20260831090005 72 285 0.0 0.9 0.00 0.00 0.00 1 1018.9
20260831085618 72 285 0.0 0.9 0.00 0.00 0.00 1 1018.9
20260831084504 72 285 0.0 0.9 0.00 0.00 0.00 1 1018.9
20260831083604 72 0 0.0 0.0 0.00 0.00 0.00 1 1018.9
20260831082704 72 285 0.0 0.9 0.00 0.00 0.00 1 1019.0
20260831081804 72 0 0.0 0.0 0.00 0.00 0.00 1 1019.1
20260831080905 72 285 0.0 0.9 0.00 0.00 0.00 1 1019.1
20260831080005 72 285 0.0 0.9 0.00 0.00 0.00 1 1019.2
20260831075404 72 0 0.0 0.0 0.00 0.00 0.00 1 1019.2
20260831074504 72 0 0.0 0.0 0.00 0.00 0.00 1 1019.2
20260831073604 72 0 0.0 0.0 0.00 0.00 0.00 1 1019.1
20260831072705 73 0 0.0 0.0 0.00 0.00 0.00 1 1019.2
20260831071804 73 0 0.0 0.0 0.00 0.00 0.00 1 1019.3
20260831070904 73 0 0.0 0.0 0.00 0.00 0.00 1 1019.2
20260831070005 73 0 0.0 0.0 0.00 0.00 0.00 1 1019.3
20260831065404 73 0 0.0 0.0 0.00 0.00 0.00 1 1019.3
20260831064504 73 285 0.0 0.9 0.00 0.00 0.00 1 1019.3
20260831063604 73 0 0.0 0.0 0.00 0.00 0.00 1 1019.2
20260831062705 73 0 0.0 0.0 0.00 0.00 0.00 1 1019.2
20260831061804 74 0 0.0 0.0 0.00 0.00 0.00 1 1019.2
20260831060905 74 285 0.0 0.9 0.00 0.00 0.00 1 1019.2
20260831060005 74 289 0.9 1.7 0.00 0.00 0.00 1 1019.3
20260831055615 74 290 0.0 1.7 0.00 0.00 0.00 1 1019.3
20260831054718 74 293 0.0 0.9 0.00 0.00 0.00 1 1019.3